This is the latest recevied weather packets stored in our database for station/object 9D9-WX. If no packets are shown the sender has not sent any weather packets the latest 10 day(s).
| Time | Temp. | Humidity | Pressure | Rain* | Wind** | Luminosity | Snow |
|---|---|---|---|---|---|---|---|
| 1777581911 | 9.44° C | 45% | 987.3 hPa | 0 mm | - | - | - |
| 1777581026 | 10° C | 45% | 987 hPa | 0 mm | - | - | - |
| 1777580111 | 9.44° C | 45% | 986.9 hPa | 0 mm | - | - | - |
| 1777579231 | 10° C | 45% | 986.9 hPa | 0 mm | - | - | - |
| 1777578311 | 10° C | 45% | 987.1 hPa | 0 mm | - | - | - |
| 1777577421 | 10° C | 45% | 987.1 hPa | 0 mm | - | - | - |
| 1777576510 | 10° C | 45% | 987 hPa | 0 mm | - | - | - |
| 1777575629 | 10° C | 45% | 987 hPa | 0 mm | - | - | - |
| 1777574710 | 9.44° C | 47% | 987 hPa | 0 mm | - | - | - |
| 1777573820 | 10° C | 47% | 986.8 hPa | 0 mm | - | - | - |
| 1777572909 | 9.44° C | 47% | 986.7 hPa | 0 mm | - | - | - |
| 1777572030 | 9.44° C | 47% | 986.7 hPa | 0 mm | - | - | - |
| 1777571109 | 9.44° C | 56% | 987.3 hPa | 0 mm | - | - | - |
| 1777570225 | 9.44° C | 51% | 987.5 hPa | 0 mm | - | - | - |
| 1777569310 | 8.89° C | 51% | 987.5 hPa | 0 mm | - | - | - |
| 1777568429 | 8.89° C | 51% | 987.5 hPa | 0 mm | - | - | - |
| 1777567509 | 8.89° C | 56% | 986.3 hPa | 0 mm | - | - | - |
| 1777566626 | 8.89° C | 60% | 986.9 hPa | 0 mm | - | - | - |
| 1777565709 | 8.89° C | 60% | 986.9 hPa | 0 mm | - | - | - |
| 1777564832 | 8.89° C | 60% | 986.9 hPa | 0 mm | - | - | - |
| 1777563909 | 8.33° C | 70% | 986.7 hPa | 0 mm | - | - | - |
| 1777563027 | 8.33° C | 70% | 987.2 hPa | 0 mm | - | - | - |
| 1777562110 | 7.78° C | 70% | 987.2 hPa | 0 mm | - | - | - |
| 1777561227 | 7.22° C | 70% | 987.2 hPa | 0 mm | - | - | - |
| 1777560310 | 7.22° C | 80% | 986.2 hPa | 0 mm | - | - | - |
* Rain latest hour (hover to see other rain measurements)
** Current wind speed in m/s (hover to see current wind gust speed)